Vertical_Velocity
2 1 3 0 1 1 2 2 0 1 0 -1 0 -2 -1 -2 -1 -2 -2 -3 -2 -2 -2 -1 -2 -3 -4 -3 -4 -4 -3 -3 -2 -2 -1 -1 -0 -1
-0 3 2 1 2 2 2 1 -2 -2 -0 1 -1 -2 0 -0 -0 -3 -2 -1 -2 -2 -1 -1 -1 -3 -3 -2 -2 -3 -4 -4 -2 -2 -2 -2 -3 -1
1 3 -0 0 0 0 1 1 -1 -1 -3 0 0 -2 -1 -2 -2 -2 -3 -2 -2 -2 -1 -2 -1 -1 -2 -3 -3 -3 -3 -3 -2 -2 -4 -3 -1 -5
1 5 0 -1 -2 2 3 3 -3 -1 -1 -1 1 -1 -1 -1 -1 -2 -3 -3 -3 -2 -1 -1 -1 -1 -1 -3 -2 -2 -2 -2 1 -0 -1 1 0 -3
-0 -0 -0 -0 0 0 3 4 1 -0 -2 -1 0 1 -1 -2 -3 -3 -3 -3 -4 -2 -1 -2 -2 -2 -2 -1 -0 -1 -0 -0 0 -1 -2 -0 -1 -1
0 0 3 1 1 0 1 3 -1 1 -1 1 2 -1 -3 -3 -4 -3 -3 -2 -2 0 -1 -3 -3 -2 0 -2 -2 -2 -2 -0 -2 -3 -4 -0 1 -0
4 -1 -0 -1 -0 -0 0 1 2 -1 -0 1 -0 1 0 -4 -1 -2 -5 -5 -1 -2 -1 -1 -2 -0 -2 -2 -3 -0 -1 -3 -3 -3 -2 -1 1 -3
0 -1 -1 3 -1 -1 2 1 -1 0 1 1 -1 -0 -0 -0 -1 -2 -4 -5 3 -0 -2 -4 -2 -0 -2 -1 -3 -3 -3 -2 -5 -4 -4 -4 -1 -6
1 1 2 1 1 1 0 -0 -0 2 2 -1 -0 -2 -2 1 -0 -4 -2 -1 -1 -1 -0 -0 -3 -1 -1 1 -1 1 -0 -3 -5 -6 -6 -7 -1 -4
-0 -0 2 0 2 1 -3 -3 2 0 -0 -0 -1 -0 1 -0 -1 -2 -1 -1 -3 3 1 0 -6 -5 -2 -1 -2 -3 -2 -2 -5 -6 -7 -8 -1 -1
-0 2 -2 0 2 1 -1 -1 1 -2 -3 0 2 2 -0 0 -0 -2 -2 -2 2 -2 -1 3 2 -6 -7 -4 -3 -4 -1 -3 -3 -5 -6 -6 -5 -1
-6 1 3 2 0 -2 0 -1 -1 -3 -3 0 0 1 1 1 -2 2 -3 0 1 0 -4 -1 -0 2 0 -7 -0 -1 -4 -4 -5 -5 -6 -6 -6 -6
0 -1 -3 4 -3 -1 3 0 -1 -2 -1 0 1 -0 -1 -1 1 -2 0 2 3 -0 -4 -2 1 4 -0 5 -2 -1 -1 3 1 3 -3 -7 -7 -12
1 -0 2 -6 -3 -3 1 -0 -3 -0 -1 0 -2 0 1 -2 -1 2 1 1 -2 1 1 -2 -2 -0 -0 4 1 10 -2 -4 -1 4 3 -5 -6 -6
-4 -5 -7 2 -1 1 -2 0 0 -2 -1 -0 1 1 0 -0 4 -2 2 1 -2 -1 -4 -2 -1 -2 -0 -0 6 -1 10 17 2 5 6 -7 -3 -2
2 2 4 2 4 5 -3 -0 -1 0 -1 3 0 1 -1 -3 0 -1 -0 -0 -1 -3 -1 -1 -1 -3 -6 -6 -2 3 -6 -6 2 -6 0 1 -9 -5
0 3 3 1 -0 -5 -2 1 6 -0 4 1 -3 2 5 2 -1 -1 1 -1 -0 -2 1 1 -1 -2 -3 1 1 -2 -2 1 -5 -5 4 4 -4 -6
-1 1 5 0 2 -1 4 5 2 0 -2 -1 -2 -2 -0 -1 -0 -1 1 -1 -1 -0 -1 -2 -2 -1 0 -15 -13 8 -9 -7 -6 -5 3 -1 6 -4
3 -1 1 2 4 6 5 1 -1 -1 0 0 0 1 -0 -2 -0 1 -0 0 -2 -1 -1 -0 1 3 5 6 -4 -20 6 -5 2 7 2 -7 1 -4
-4 -6 -1 1 -1 1 2 2 1 -0 -1 -0 -0 -2 -1 -1 2 1 0 -1 -1 -2 -1 1 0 1 1 -0 10 8 -9 1 -6 -2 4 3 -2 -11
-4 1 3 1 0 4 -0 -1 -4 -2 -1 -0 -2 0 -0 -2 2 1 -0 -0 -2 -1 -2 -2 -3 -2 0 -3 -3 2 -3 -6 -13 -15 -6 1 -2 6
4 0 4 2 1 -1 -1 -2 -3 -1 -1 -1 1 2 -0 0 -0 -0 0 -1 0 -1 -2 -3 -2 -4 -4 -2 -1 -2 3 5 0 -11 -11 -17 -18 -12
0 1 -2 -0 1 -3 -0 -4 -1 -3 -1 3 -2 1 -0 0 1 0 -1 -1 -1 -1 0 -3 -4 -4 -4 -1 -2 0 1 1 -2 17 4 -9 -7 -10
Height
5813 5817 5819 5822 5823 5825 5827 5827 5828 5828 5828 5826 5825 5822 5819 5816 5813 5810 5807 5803 5800 5795 5790 5785 5779 5772 5766 5760 5754 5747 5740 5733 5726 5720 5714 5708 5703 5697
5807 5810 5812 5815 5817 5819 5820 5821 5821 5821 5820 5818 5816 5813 5811 5808 5805 5802 5799 5796 5791 5786 5781 5775 5769 5763 5756 5750 5743 5736 5729 5723 5716 5708 5702 5697 5691 5685
5799 5803 5805 5807 5810 5813 5814 5815 5814 5813 5811 5810 5808 5806 5804 5801 5798 5795 5791 5787 5782 5777 5772 5765 5759 5753 5745 5738 5731 5724 5718 5712 5705 5698 5692 5686 5679 5671
5791 5795 5798 5800 5803 5805 5806 5807 5805 5805 5804 5801 5800 5799 5797 5793 5790 5787 5783 5778 5772 5767 5761 5755 5749 5742 5735 5728 5721 5713 5707 5700 5693 5687 5680 5673 5664 5655
5782 5787 5791 5793 5794 5796 5797 5798 5798 5797 5796 5795 5794 5791 5788 5785 5782 5778 5773 5768 5762 5757 5751 5745 5738 5731 5724 5717 5710 5703 5696 5689 5683 5676 5668 5660 5650 5640
5776 5780 5783 5785 5786 5789 5789 5790 5790 5789 5789 5788 5785 5782 5780 5777 5773 5768 5763 5757 5751 5745 5739 5733 5727 5720 5713 5706 5699 5692 5684 5677 5671 5662 5654 5646 5635 5625
5769 5772 5774 5777 5779 5780 5781 5782 5781 5781 5781 5779 5777 5774 5771 5767 5763 5758 5752 5746 5740 5734 5728 5722 5716 5709 5701 5694 5686 5679 5672 5664 5656 5648 5640 5631 5619 5608
5761 5763 5766 5769 5771 5773 5774 5774 5774 5773 5773 5770 5768 5765 5761 5757 5753 5748 5742 5734 5729 5724 5717 5710 5703 5697 5689 5682 5674 5666 5658 5650 5642 5633 5625 5615 5603 5592
5753 5757 5759 5761 5764 5766 5766 5766 5765 5765 5764 5761 5758 5755 5750 5746 5742 5736 5730 5723 5719 5713 5705 5698 5692 5686 5678 5670 5661 5653 5644 5635 5627 5618 5609 5599 5588 5576
5745 5749 5752 5755 5758 5759 5759 5758 5758 5757 5754 5751 5748 5744 5740 5735 5730 5725 5719 5714 5709 5702 5694 5687 5679 5673 5665 5657 5648 5640 5631 5621 5612 5603 5595 5585 5574 5561
5737 5740 5745 5748 5749 5750 5751 5750 5749 5747 5744 5740 5736 5732 5728 5724 5720 5714 5709 5704 5698 5692 5685 5678 5668 5658 5651 5644 5635 5626 5618 5609 5599 5589 5580 5570 5559 5546
5730 5734 5738 5739 5740 5741 5741 5741 5739 5736 5733 5729 5725 5721 5717 5714 5709 5704 5699 5694 5689 5683 5676 5669 5660 5650 5637 5630 5623 5613 5605 5597 5587 5577 5565 5553 5542 5531
5725 5727 5729 5730 5731 5731 5731 5729 5727 5724 5721 5717 5714 5710 5706 5703 5699 5694 5689 5684 5679 5672 5665 5659 5651 5641 5631 5620 5611 5603 5595 5587 5577 5565 5550 5535 5522 5509
5717 5719 5722 5721 5721 5721 5720 5719 5716 5713 5709 5706 5703 5699 5696 5693 5689 5684 5679 5673 5668 5662 5654 5645 5638 5630 5621 5613 5605 5598 5585 5576 5566 5554 5538 5521 5506 5493
5708 5711 5711 5712 5711 5711 5709 5707 5704 5702 5699 5696 5692 5690 5687 5683 5678 5674 5669 5663 5656 5649 5642 5634 5625 5617 5611 5604 5598 5588 5581 5566 5553 5541 5526 5507 5496 5485
5699 5700 5700 5700 5702 5701 5698 5697 5694 5691 5688 5685 5684 5681 5677 5673 5669 5663 5658 5652 5645 5638 5630 5622 5614 5606 5599 5593 5586 5576 5565 5555 5542 5529 5517 5497 5481 5471
5688 5689 5690 5691 5691 5688 5687 5686 5683 5681 5679 5677 5675 5672 5667 5663 5658 5652 5647 5640 5633 5626 5619 5611 5604 5597 5590 5583 5573 5563 5553 5541 5527 5516 5507 5495 5475 5462
5677 5680 5681 5680 5680 5679 5677 5675 5673 5671 5669 5667 5664 5661 5657 5653 5647 5642 5636 5629 5622 5615 5608 5601 5595 5588 5578 5566 5561 5553 5541 5530 5516 5504 5494 5485 5472 5458
5669 5670 5672 5671 5669 5668 5667 5666 5664 5662 5660 5657 5654 5651 5647 5642 5637 5631 5625 5618 5611 5605 5600 5594 5587 5580 5571 5560 5543 5538 5531 5518 5509 5496 5485 5474 5461 5450
5658 5659 5660 5659 5658 5659 5658 5657 5655 5654 5651 5647 5644 5640 5636 5631 5626 5620 5614 5607 5602 5596 5590 5585 5578 5570 5562 5553 5542 5525 5515 5506 5496 5490 5481 5469 5455 5441
5648 5648 5649 5650 5650 5649 5649 5648 5646 5644 5641 5638 5634 5630 5625 5621 5615 5609 5603 5598 5593 5586 5580 5574 5567 5559 5551 5541 5531 5518 5502 5491 5482 5478 5472 5464 5454 5441
5638 5640 5640 5641 5641 5640 5640 5638 5636 5634 5631 5628 5624 5619 5615 5610 5605 5599 5595 5589 5583 5577 5570 5563 5555 5547 5539 5530 5519 5509 5499 5488 5477 5465 5459 5450 5440 5432
5630 5631 5632 5632 5632 5632 5630 5629 5627 5624 5622 5617 5614 5609 5605 5600 5595 5591 5586 5580 5574 5567 5560 5552 5544 5535 5527 5517 5508 5499 5491 5483 5477 5468 5453 5443 5431 5419